SUNNYSIDE Weather Reports


Display with metric or nautical units.
time (UTC)temp
F
wind
direction
speed
MPH
gust
MPH
rain 1hr
in
rain 24hr
in
rain mn
in
humidity
%
barometer
mb
20260506155048 36 355 6.0 14.0 0.00 0.00 0.00 53 986.9
20260506154552 36 323 10.0 14.0 0.00 0.00 0.00 52 986.9
20260506154046 36 15 7.0 15.0 0.00 0.00 0.00 54 986.8
20260506153545 36 344 7.0 15.0 0.00 0.00 0.00 53 986.8
20260506153047 35 284 9.0 13.0 0.00 0.00 0.00 53 986.8
20260506152545 36 331 9.0 14.0 0.00 0.00 0.00 52 986.9
20260506152047 36 355 9.0 14.0 0.00 0.00 0.00 51 986.8
20260506151544 36 355 8.0 13.0 0.00 0.00 0.00 52 986.7
20260506151044 36 344 8.0 13.0 0.00 0.00 0.00 52 986.8
20260506150543 36 304 9.0 13.0 0.00 0.00 0.00 51 986.7
20260506150043 36 310 8.0 14.0 0.00 0.00 0.00 52 986.8
20260506145542 36 300 8.0 13.0 0.00 0.00 0.00 52 986.8
20260506145042 36 355 7.0 12.0 0.00 0.00 0.00 52 986.8
20260506144544 36 287 7.0 13.0 0.00 0.00 0.00 52 986.7
20260506144042 36 332 6.0 13.0 0.00 0.00 0.00 52 986.7
20260506143542 36 319 7.0 13.0 0.00 0.00 0.00 52 986.7
20260506143041 36 311 8.0 13.0 0.00 0.00 0.00 51 986.7
20260506142540 36 325 5.0 13.0 0.00 0.00 0.00 53 986.6
20260506142042 36 324 7.0 12.0 0.00 0.00 0.00 52 986.6
20260506141538 35 297 8.0 12.0 0.00 0.00 0.00 52 986.7
20260506141038 35 297 7.0 11.0 0.00 0.00 0.00 53 986.7
20260506140537 35 325 9.0 13.0 0.00 0.00 0.00 52 986.7
20260506140042 35 333 8.0 12.0 0.00 0.00 0.00 52 986.8
20260506135535 35 317 7.0 13.0 0.00 0.00 0.00 52 986.6
20260506135035 35 325 8.0 13.0 0.00 0.00 0.00 52 986.8
20260506134535 35 290 8.0 11.0 0.00 0.00 0.00 52 986.8
20260506134035 35 342 7.0 10.0 0.00 0.00 0.00 52 986.8
20260506133535 35 292 6.0 11.0 0.00 0.00 0.00 52 986.7
20260506133034 35 309 7.0 11.0 0.00 0.00 0.00 52 986.7
20260506132532 34 292 5.0 11.0 0.00 0.00 0.00 52 986.7
20260506132032 34 244 5.0 12.0 0.00 0.00 0.00 53 986.7
20260506131534 34 292 8.0 12.0 0.00 0.00 0.00 53 986.7
20260506131028 34 309 5.0 11.0 0.00 0.00 0.00 53 986.8
20260506130529 34 336 5.0 11.0 0.00 0.00 0.00 53 986.7
20260506130029 33 308 6.0 10.0 0.00 0.00 0.00 53 986.6
20260506125526 33 294 4.0 8.0 0.00 0.00 0.00 53 986.6
20260506125027 33 286 5.0 9.0 0.00 0.00 0.00 53 986.7
20260506124525 33 292 3.0 9.0 0.00 0.00 0.00 53 986.6
20260506124027 33 286 4.0 8.0 0.00 0.00 0.00 54 986.6
20260506123524 33 260 3.0 7.0 0.00 0.00 0.00 54 986.6
20260506123023 32 271 4.0 8.0 0.00 0.00 0.00 54 986.6
20260506122523 32 276 4.0 8.0 0.00 0.00 0.00 55 986.6
20260506122021 32 275 4.0 8.0 0.00 0.00 0.00 55 986.6
20260506121521 32 267 4.0 7.0 0.00 0.00 0.00 56 986.5
20260506121020 32 265 3.0 5.0 0.00 0.00 0.00 56 986.5
20260506120521 32 278 3.0 7.0 0.00 0.00 0.00 56 986.4
20260506120029 31 255 3.0 7.0 0.00 0.00 0.00 56 986.3
20260506115521 31 269 2.0 6.0 0.00 0.00 0.00 55 986.4
20260506115020 31 272 2.0 4.0 0.00 0.00 0.00 56 986.3
20260506114521 31 260 2.0 5.0 0.00 0.00 0.00 55 986.3
20260506114020 31 254 3.0 5.0 0.00 0.00 0.00 55 986.4
20260506113520 31 271 2.0 5.0 0.00 0.00 0.00 56 986.3
20260506113020 31 239 3.0 5.0 0.00 0.00 0.00 56 986.2
20260506112519 31 245 3.0 4.0 0.00 0.00 0.00 56 986.2
20260506112019 31 254 2.0 4.0 0.00 0.00 0.00 56 986.3
20260506111523 31 254 3.0 4.0 0.00 0.00 0.00 56 986.3
20260506111019 31 277 1.0 3.0 0.00 0.00 0.00 56 986.3
20260506110518 31 277 1.0 3.0 0.00 0.00 0.00 56 986.3
20260506110019 31 277 1.0 3.0 0.00 0.00 0.00 56 986.2
20260506105519 31 277 1.0 3.0 0.00 0.00 0.00 56 986.2
20260506105018 31 277 1.0 3.0 0.00 0.00 0.00 56 986.3
20260506104518 31 277 1.0 3.0 0.00 0.00 0.00 56 986.2
20260506104018 31 277 0.0 3.0 0.00 0.00 0.00 56 986.2
20260506103518 31 277 1.0 3.0 0.00 0.00 0.00 56 986.2
20260506103021 31 277 1.0 4.0 0.00 0.00 0.00 56 986.3
20260506102521 31 277 1.0 4.0 0.00 0.00 0.00 56 986.3
20260506102018 31 277 2.0 4.0 0.00 0.00 0.00 56 986.2
20260506101519 31 277 2.0 3.0 0.00 0.00 0.00 56 986.3
20260506101017 31 277 1.0 4.0 0.00 0.00 0.00 56 986.4
20260506100517 31 301 2.0 5.0 0.00 0.00 0.00 56 986.4
20260506100017 31 256 2.0 5.0 0.00 0.00 0.00 56 986.4
20260506095519 31 281 2.0 4.0 0.00 0.00 0.00 56 986.5
20260506095016 31 261 2.0 4.0 0.00 0.00 0.00 56 986.5
20260506094517 31 261 2.0 4.0 0.00 0.00 0.00 56 986.4
20260506094017 32 289 1.0 4.0 0.00 0.00 0.00 56 986.4
20260506093519 32 298 2.0 5.0 0.00 0.00 0.00 56 986.4
20260506093028 32 304 3.0 5.0 0.00 0.00 0.00 56 986.4
20260506092516 32 284 3.0 5.0 0.00 0.00 0.00 56 986.4
20260506092018 31 294 2.0 6.0 0.00 0.00 0.00 56 986.4
20260506091516 32 275 2.0 6.0 0.00 0.00 0.00 56 986.3
20260506091015 31 254 3.0 4.0 0.00 0.00 0.00 56 986.2
20260506090514 32 281 2.0 4.0 0.00 0.00 0.00 56 986.3
20260506090014 32 267 1.0 5.0 0.00 0.00 0.00 56 986.3
20260506085516 32 296 3.0 5.0 0.00 0.00 0.00 56 986.4
20260506085014 32 295 3.0 5.0 0.00 0.00 0.00 56 986.3
20260506084516 32 292 2.0 7.0 0.00 0.00 0.00 56 986.3
20260506084017 32 279 3.0 7.0 0.00 0.00 0.00 56 986.2
20260506083514 32 304 3.0 8.0 0.00 0.00 0.00 56 986.3
20260506083014 32 292 4.0 8.0 0.00 0.00 0.00 56 986.3
20260506082518 32 297 3.0 6.0 0.00 0.00 0.00 56 986.3
20260506082013 32 294 4.0 8.0 0.00 0.00 0.00 56 986.3
20260506081512 32 296 3.0 8.0 0.00 0.00 0.00 56 986.3
20260506081016 32 292 4.0 8.0 0.00 0.00 0.00 56 986.3
20260506080512 32 296 4.0 9.0 0.00 0.00 0.00 55 986.3
20260506073512 32 323 4.0 8.0 0.00 0.00 0.00 55 986.3
20260506073010 32 281 3.0 8.0 0.00 0.00 0.00 54 986.3
20260506072508 32 298 2.0 7.0 0.00 0.00 0.00 54 986.3
20260506072009 32 273 4.0 8.0 0.00 0.00 0.00 54 986.3
20260506071508 32 286 3.0 8.0 0.00 0.00 0.00 54 986.3
20260506071006 31 290 3.0 6.0 0.00 0.00 0.00 54 986.4
20260506070505 31 300 3.0 6.0 0.00 0.00 0.00 55 986.4
20260506062500 30 277 2.0 5.0 0.00 0.00 0.00 56 986.4
20260506062100 30 277 1.0 4.0 0.00 0.00 0.00 56 986.4
20260506061605 30 277 2.0 4.0 0.00 0.00 0.00 56 986.5
20260506061059 30 294 1.0 5.0 0.00 0.00 0.00 56 986.5
20260506060558 30 292 2.0 5.0 0.00 0.00 0.00 56 986.4
20260506051054 30 273 2.0 3.0 0.00 0.00 0.00 56 986.4
20260506050554 30 266 1.0 3.0 0.00 0.00 0.00 56 986.4
20260506045054 29 269 2.0 4.0 0.00 0.00 0.00 56 986.5
20260506044604 30 290 1.0 4.0 0.00 0.00 0.00 56 986.4
20260506044052 30 281 1.0 4.0 0.00 0.00 0.00 56 986.5
20260506043556 30 280 2.0 4.0 0.00 0.00 0.00 56 986.5
20260506043054 30 265 2.0 6.0 0.00 0.00 0.00 56 986.6
20260506042552 30 271 2.0 6.0 0.00 0.00 0.00 56 986.5
20260506042052 30 289 2.0 4.0 0.00 0.00 0.00 56 986.5
20260506041605 30 288 2.0 4.0 0.00 0.00 0.00 56 986.5
20260506041054 30 289 2.0 4.0 0.00 0.00 0.00 56 986.5
20260506040551 31 293 2.0 4.0 0.00 0.00 0.00 56 986.6
20260506040055 31 288 2.0 4.0 0.00 0.00 0.00 56 986.6
20260506035551 31 302 3.0 5.0 0.00 0.00 0.00 55 986.6
20260506035052 31 305 3.0 5.0 0.00 0.00 0.00 55 986.6
20260506034551 31 286 3.0 5.0 0.00 0.00 0.00 55 986.5
20260506034050 32 290 2.0 5.0 0.00 0.00 0.00 55 986.6
20260506033550 32 277 2.0 6.0 0.00 0.00 0.00 55 986.6
20260506033052 32 315 3.0 6.0 0.00 0.00 0.00 54 986.6
20260506032550 32 302 3.0 6.0 0.00 0.00 0.00 54 986.5
20260506032050 32 295 2.0 5.0 0.00 0.00 0.00 54 986.5
20260506031549 32 329 2.0 5.0 0.00 0.00 0.00 54 986.6
20260506031051 32 307 3.0 5.0 0.00 0.00 0.00 54 986.5
20260506030547 32 308 2.0 5.0 0.00 0.00 0.00 54 986.4
20260506030047 33 291 3.0 6.0 0.00 0.00 0.00 53 986.5
20260506025548 33 320 4.0 6.0 0.00 0.00 0.00 52 986.4
20260506025047 33 307 3.0 6.0 0.00 0.00 0.00 52 986.5
20260506024547 33 323 3.0 8.0 0.00 0.00 0.00 52 986.4
20260506024049 33 331 3.0 8.0 0.00 0.00 0.00 52 986.4
20260506023547 33 328 5.0 9.0 0.00 0.00 0.00 52 986.4
20260506023053 34 310 4.0 10.0 0.00 0.00 0.00 51 986.4
20260506022546 34 346 5.0 9.0 0.00 0.00 0.00 51 986.3
20260506022045 34 325 4.0 10.0 0.00 0.00 0.00 50 986.3
20260506021544 34 333 6.0 12.0 0.00 0.00 0.00 50 986.3
20260506021046 34 326 8.0 12.0 0.00 0.00 0.00 49 986.1
20260506020544 35 306 6.0 11.0 0.00 0.00 0.00 49 986.2
20260506020113 35 298 4.0 11.0 0.00 0.00 0.00 49 986.1
20260506015546 35 338 6.0 11.0 0.00 0.00 0.00 48 986.1
20260506015044 35 313 7.0 13.0 0.00 0.00 0.00 48 986.0
20260506014544 35 305 8.0 13.0 0.00 0.00 0.00 48 985.9
20260506014042 35 310 7.0 11.0 0.00 0.00 0.00 48 985.9
20260506013542 35 322 5.0 13.0 0.00 0.00 0.00 48 985.8
20260506013041 35 305 9.0 13.0 0.00 0.00 0.00 48 985.8
20260506012541 36 343 8.0 14.0 0.00 0.00 0.00 48 985.8
20260506012041 36 341 8.0 15.0 0.00 0.00 0.00 48 985.7
20260506011545 36 328 10.0 15.0 0.00 0.00 0.00 48 985.6
20260506011040 36 316 8.0 14.0 0.00 0.00 0.00 48 985.7
20260506010539 36 344 8.0 14.0 0.00 0.00 0.00 48 985.6
20260506010039 36 295 8.0 14.0 0.00 0.00 0.00 48 985.6
20260506005539 36 340 8.0 16.0 0.00 0.00 0.00 47 985.5
20260506005038 36 335 8.0 16.0 0.00 0.00 0.00 47 985.4
20260506004542 36 319 9.0 17.0 0.00 0.00 0.00 47 985.4
20260506004037 36 324 11.0 20.0 0.00 0.00 0.00 46 985.4
20260506003537 36 303 10.0 18.0 0.00 0.00 0.00 46 985.3
20260506003038 36 341 9.0 18.0 0.00 0.00 0.00 46 985.3
20260506002538 36 282 9.0 16.0 0.00 0.00 0.00 47 985.3
20260506002037 36 336 10.0 16.0 0.00 0.00 0.00 47 985.3
20260506001545 36 301 10.0 18.0 0.00 0.00 0.00 47 985.3
20260506001036 37 303 12.0 18.0 0.00 0.00 0.00 46 985.3
20260506000536 37 321 12.0 21.0 0.00 0.00 0.00 46 985.2
20260506000052 37 336 9.0 17.0 0.00 0.00 0.00 46 985.3
20260505235538 37 304 11.0 18.0 0.00 0.00 0.00 45 985.2
20260505235037 37 309 12.0 18.0 0.00 0.00 0.00 44 985.2
20260505234540 37 307 11.0 17.0 0.00 0.00 0.00 44 985.2
20260505234034 37 320 11.0 16.0 0.00 0.00 0.00 43 985.0
20260505233533 37 311 9.0 16.0 0.00 0.00 0.00 44 985.1
20260505233034 37 299 9.0 16.0 0.00 0.00 0.00 44 985.0
20260505232537 37 297 9.0 16.0 0.00 0.00 0.00 44 985.1
20260505232033 37 327 6.0 15.0 0.00 0.00 0.00 45 985.0
20260505231532 37 12 4.0 14.0 0.00 0.00 0.00 44 985.1
20260505231033 37 17 6.0 14.0 0.00 0.00 0.00 45 985.1
20260505230532 37 344 6.0 14.0 0.00 0.00 0.00 45 985.2
20260505230041 37 40 7.0 14.0 0.00 0.00 0.00 45 985.1
20260505225532 37 351 9.0 14.0 0.00 0.00 0.00 45 985.1
20260505225032 37 336 10.0 14.0 0.00 0.00 0.00 45 985.0
20260505224542 37 350 8.0 16.0 0.00 0.00 0.00 45 985.0
20260505224031 37 330 11.0 17.0 0.00 0.00 0.00 45 985.1
20260505223531 37 320 10.0 17.0 0.00 0.00 0.00 46 985.1
20260505223037 37 350 9.0 16.0 0.00 0.00 0.00 46 985.1
20260505222532 37 292 11.0 19.0 0.00 0.00 0.00 45 985.0
20260505222033 37 323 11.0 19.0 0.00 0.00 0.00 45 984.9
20260505221531 37 302 10.0 19.0 0.00 0.00 0.00 45 984.9
20260505221030 37 300 11.0 19.0 0.00 0.00 0.00 45 984.8
20260505220530 38 321 10.0 17.0 0.00 0.00 0.00 45 984.7
20260505220029 38 322 11.0 17.0 0.00 0.00 0.00 46 984.8
20260505215530 37 351 7.0 17.0 0.00 0.00 0.00 47 984.8
20260505215027 36 317 12.0 18.0 0.00 0.00 0.00 47 984.9
20260505214527 36 318 11.0 18.0 0.00 0.00 0.00 47 985.0
20260505214029 36 316 10.0 16.0 0.00 0.00 0.00 47 985.0
20260505213525 36 312 9.0 17.0 0.00 0.00 0.00 48 985.0
20260505213028 36 319 11.0 19.0 0.00 0.00 0.00 47 984.9
20260505212526 36 346 13.0 19.0 0.00 0.00 0.00 47 984.9
20260505212026 36 319 10.0 20.0 0.00 0.00 0.00 47 984.8
20260505211531 36 12 10.0 20.0 0.00 0.00 0.00 46 984.8
20260505211025 37 310 9.0 16.0 0.00 0.00 0.00 46 984.6
20260505210524 36 311 9.0 19.0 0.00 0.00 0.00 47 984.7
20260505210024 36 309 11.0 19.0 0.00 0.00 0.00 46 984.5
20260505205530 36 298 8.0 20.0 0.00 0.00 0.00 47 984.6
20260505205027 35 331 13.0 20.0 0.00 0.00 0.00 47 984.7
20260505204523 36 360 10.0 19.0 0.00 0.00 0.00 48 984.6
20260505204026 35 340 11.0 19.0 0.00 0.00 0.00 48 984.7
20260505203522 36 297 11.0 18.0 0.00 0.00 0.00 47 984.7
20260505203023 35 326 11.0 19.0 0.00 0.00 0.00 48 984.7
20260505202523 36 304 9.0 19.0 0.00 0.00 0.00 49 984.6
20260505202028 36 302 12.0 19.0 0.00 0.00 0.00 47 984.7
20260505201520 35 355 10.0 19.0 0.00 0.00 0.00 48 984.6
20260505201021 35 10 11.0 18.0 0.00 0.00 0.00 47 984.6
20260505200521 35 313 10.0 20.0 0.00 0.00 0.00 46 984.6
20260505200022 35 300 11.0 20.0 0.00 0.00 0.00 45 984.7
20260505195520 35 13 12.0 20.0 0.00 0.00 0.00 45 984.5
20260505195020 36 343 11.0 19.0 0.00 0.00 0.00 44 984.5
20260505194519 35 311 11.0 19.0 0.00 0.00 0.00 46 984.4
20260505194021 35 318 12.0 21.0 0.00 0.00 0.00 45 984.6
20260505193517 35 292 11.0 21.0 0.00 0.00 0.00 45 984.6
20260505193016 34 322 10.0 19.0 0.00 0.00 0.00 45 984.6
20260505192518 35 303 11.0 19.0 0.00 0.00 0.00 44 984.6
20260505192016 35 338 10.0 23.0 0.00 0.00 0.00 46 984.5
20260505191518 34 346 11.0 17.0 0.00 0.00 0.00 46 984.5
20260505191014 34 317 13.0 19.0 0.00 0.00 0.00 47 984.6
20260505190512 33 318 13.0 20.0 0.00 0.00 0.00 47 984.4
20260505190013 33 294 11.0 19.0 0.00 0.00 0.00 46 984.4
20260505185513 33 319 13.0 19.0 0.00 0.00 0.00 47 984.4
20260505185012 33 299 13.0 19.0 0.00 0.00 0.00 46 984.3
20260505184512 34 338 12.0 19.0 0.00 0.00 0.00 46 984.3
20260505184011 34 298 13.0 17.0 0.00 0.00 0.00 46 984.3
20260505183514 34 298 11.0 16.0 0.00 0.00 0.00 46 984.3
20260505183013 33 304 11.0 20.0 0.00 0.00 0.00 45 984.2
20260505182513 33 346 11.0 20.0 0.00 0.00 0.00 46 984.3
20260505182013 33 307 12.0 17.0 0.00 0.00 0.00 46 984.2
20260505181509 33 307 11.0 18.0 0.00 0.00 0.00 47 984.2
20260505181008 33 339 12.0 18.0 0.00 0.00 0.00 48 984.3
20260505180507 33 313 10.0 18.0 0.00 0.00 0.00 48 984.4
20260505180007 32 318 12.0 18.0 0.00 0.00 0.00 48 984.3
20260505175507 32 307 12.0 19.0 0.00 0.00 0.00 48 984.4
20260505175009 32 315 12.0 19.0 0.00 0.00 0.00 50 984.4
20260505174506 32 309 12.0 20.0 0.00 0.00 0.00 50 984.3
20260505174010 32 318 13.0 20.0 0.00 0.00 0.00 49 984.2
20260505173505 32 320 11.0 20.0 0.00 0.00 0.00 49 984.2
20260505173004 32 289 14.0 20.0 0.00 0.00 0.00 48 984.1
20260505172503 32 340 12.0 19.0 0.00 0.00 0.00 48 984.0
20260505172003 33 291 13.0 19.0 0.00 0.00 0.00 47 984.0
20260505171502 32 331 11.0 20.0 0.00 0.00 0.00 48 983.9
20260505171002 32 309 12.0 20.0 0.00 0.00 0.00 47 984.0
20260505170501 32 324 10.0 19.0 0.00 0.00 0.00 49 983.9
20260505170002 32 297 11.0 21.0 0.00 0.00 0.00 48 983.9
20260505165501 32 321 12.0 21.0 0.00 0.00 0.00 46 983.8
20260505165001 32 306 12.0 21.0 0.00 0.00 0.00 47 983.9
20260505164601 31 299 12.0 21.0 0.00 0.00 0.00 47 983.9
20260505164101 31 333 13.0 22.0 0.00 0.00 0.00 47 983.8
20260505163604 31 315 13.0 22.0 0.00 0.00 0.00 47 983.9
20260505163101 31 320 12.0 21.0 0.00 0.00 0.00 48 983.9
20260505162600 31 322 13.0 21.0 0.00 0.00 0.00 48 983.9
20260505162100 32 304 12.0 18.0 0.00 0.00 0.00 48 983.7
20260505161558 32 303 11.0 20.0 0.00 0.00 0.00 47 983.6
20260505161059 32 291 12.0 20.0 0.00 0.00 0.00 46 983.5
20260505160557 32 306 9.0 19.0 0.00 0.00 0.00 46 983.5